Location: Boiro
(42.6475°N, 8.8834°W)
Time: 18:25:00
(UTC+01:00)

Tiros 1 - Pass Details

Date: 13 December 2021
Orbit: 630 x 663 km, 48.4° (Epoch: 20 January)

Event Time Altitude Azimuth Distance (km) Brightness Sun altitude
Rises 18:29:59 0° 271° (W) 2,913 11.8 -5.3°
Reaches altitude 10° 18:32:24 10° 278° (W) 2,008 10.7 -5.7°
Maximum altitude 18:36:49 44° 351° (N) 881 7.7 -6.4°
Drops below altitude 10° 18:41:16 10° 64° (ENE) 2,024 9.0 -7.1°
Enters shadow 18:41:32 - 65° (ENE) 2,118 9.1 -7.2°
Sets 18:43:42 0° 71° (ENE) 2,939 - -7.5°
